When you browse on this site, cookies collect data to enhance your experience and personalize the content and advertising you see.
Visit our Privacy Policy to learn more. By continuing to use the site, you agree to this use of cookies and data.
EN

Hourly Weather Kandahar

Today, 10 July, Friday

Time Temperature Precipitation Wind Pressure Humidity
00:00 +26°C° 0 mm 2 mps 666 mmHg 10%
01:00 +25°C° 0 mm 1 mps 665 mmHg 11%
02:00 +24°C° 0 mm 1 mps 665 mmHg 12%
03:00 +23°C° 0 mm 1 mps 665 mmHg 13%
04:00 +23°C° 0 mm 1 mps 665 mmHg 14%
05:00 +25°C° 0 mm 1 mps 666 mmHg 13%
06:00 +28°C° 0 mm 1 mps 667 mmHg 11%
07:00 +30°C° 0 mm 1 mps 668 mmHg 10%
08:00 +32°C° 0 mm 1 mps 669 mmHg 10%
09:00 +34°C° 0 mm 1 mps 669 mmHg 9%
10:00 +36°C° 0 mm 1 mps 669 mmHg 9%
11:00 +37°C° 0 mm 1 mps 669 mmHg 8%
12:00 +39°C° 0 mm 1 mps 668 mmHg 6%
13:00 +40°C° 0 mm 1 mps 668 mmHg 5%
14:00 +41°C° 0 mm 1 mps 668 mmHg 5%
15:00 +41°C° 0 mm 1 mps 667 mmHg 5%
16:00 +41°C° 0 mm 1 mps 666 mmHg 5%
17:00 +37°C° 0 mm 1 mps 666 mmHg 6%
18:00 +34°C° 0 mm 1 mps 666 mmHg 7%
19:00 +32°C° 0 mm 1 mps 665 mmHg 8%
20:00 +31°C° 0 mm 1 mps 665 mmHg 9%
21:00 +29°C° 0 mm 1 mps 665 mmHg 9%
22:00 +28°C° 0 mm 1 mps 665 mmHg 10%
23:00 +28°C° 0 mm 1 mps 665 mmHg 10%

Tomorrow, 11 July, Saturday

Time Temperature Precipitation Wind Pressure Humidity
00:00 +27°C° 0 mm 1 mps 665 mmHg 11%
01:00 +27°C° 0 mm 1 mps 665 mmHg 11%
02:00 +26°C° 0 mm 1 mps 665 mmHg 11%
03:00 +26°C° 0 mm 1 mps 665 mmHg 12%
04:00 +25°C° 0 mm 1 mps 665 mmHg 12%
05:00 +28°C° 0 mm 1 mps 666 mmHg 11%
06:00 +31°C° 0 mm 1 mps 667 mmHg 10%
07:00 +35°C° 0 mm 2 mps 668 mmHg 8%
08:00 +36°C° 0 mm 2 mps 668 mmHg 7%
09:00 +38°C° 0 mm 2 mps 668 mmHg 7%
10:00 +40°C° 0 mm 2 mps 668 mmHg 6%
11:00 +41°C° 0 mm 2 mps 667 mmHg 6%
12:00 +42°C° 0 mm 2 mps 667 mmHg 5%
13:00 +43°C° 0 mm 2 mps 666 mmHg 5%
14:00 +43°C° 0 mm 2 mps 666 mmHg 5%
15:00 +43°C° 0 mm 2 mps 665 mmHg 5%
16:00 +45°C° 0 mm 3 mps 665 mmHg 5%
17:00 +42°C° 0 mm 3 mps 664 mmHg 6%
18:00 +38°C° 0 mm 2 mps 664 mmHg 7%
19:00 +36°C° 0 mm 2 mps 664 mmHg 9%
20:00 +35°C° 0 mm 3 mps 664 mmHg 10%
21:00 +34°C° 0 mm 4 mps 664 mmHg 11%
22:00 +33°C° 0 mm 4 mps 664 mmHg 12%
23:00 +32°C° 0 mm 4 mps 664 mmHg 15%

Day after tomorrow, 12 July, Sunday

Time Temperature Precipitation Wind Pressure Humidity
00:00 +30°C° 0 mm 3 mps 664 mmHg 17%
01:00 +29°C° 0 mm 2 mps 664 mmHg 20%
02:00 +28°C° 0 mm 2 mps 664 mmHg 22%
03:00 +27°C° 0 mm 2 mps 664 mmHg 24%
04:00 +26°C° 0 mm 2 mps 664 mmHg 26%
05:00 +28°C° 0 mm 2 mps 664 mmHg 23%
06:00 +30°C° 0 mm 2 mps 665 mmHg 21%
07:00 +32°C° 0 mm 2 mps 666 mmHg 18%
08:00 +35°C° 0 mm 2 mps 666 mmHg 16%
09:00 +37°C° 0 mm 3 mps 667 mmHg 14%
10:00 +38°C° 0 mm 3 mps 667 mmHg 12%
11:00 +41°C° 0 mm 4 mps 667 mmHg 11%
12:00 +42°C° 0 mm 4 mps 666 mmHg 9%
13:00 +45°C° 0 mm 5 mps 666 mmHg 8%
14:00 +45°C° 0 mm 5 mps 666 mmHg 8%
15:00 +45°C° 0 mm 5 mps 665 mmHg 7%
16:00 +45°C° 0 mm 5 mps 665 mmHg 7%
17:00 +42°C° 0 mm 5 mps 665 mmHg 8%
18:00 +38°C° 0 mm 4 mps 664 mmHg 10%
19:00 +36°C° 0 mm 4 mps 664 mmHg 11%
20:00 +34°C° 0 mm 3 mps 664 mmHg 12%
21:00 +32°C° 0 mm 2 mps 664 mmHg 13%
22:00 +30°C° 0 mm 2 mps 664 mmHg 15%
23:00 +29°C° 0 mm 2 mps 664 mmHg 16%

13 July, Monday

Time Temperature Precipitation Wind Pressure Humidity
00:00 +28°C° 0 mm 2 mps 664 mmHg 16%
01:00 +28°C° 0 mm 1 mps 664 mmHg 17%
02:00 +27°C° 0 mm 1 mps 664 mmHg 18%
03:00 +26°C° 0 mm 1 mps 664 mmHg 19%
04:00 +25°C° 0 mm 1 mps 663 mmHg 20%
05:00 +27°C° 0 mm 1 mps 664 mmHg 20%
06:00 +30°C° 0 mm 2 mps 665 mmHg 19%
07:00 +32°C° 0 mm 2 mps 666 mmHg 18%
08:00 +35°C° 0 mm 2 mps 667 mmHg 16%
09:00 +37°C° 0 mm 2 mps 667 mmHg 13%
10:00 +39°C° 0 mm 2 mps 667 mmHg 11%
11:00 +40°C° 0 mm 3 mps 667 mmHg 9%
12:00 +43°C° 0 mm 4 mps 667 mmHg 8%
13:00 +45°C° 0 mm 5 mps 667 mmHg 7%
14:00 +45°C° 0 mm 5 mps 666 mmHg 7%
15:00 +45°C° 0 mm 6 mps 666 mmHg 6%
16:00 +45°C° 0 mm 6 mps 665 mmHg 6%
17:00 +42°C° 0 mm 5 mps 665 mmHg 7%
18:00 +38°C° 0 mm 4 mps 665 mmHg 8%
19:00 +36°C° 0 mm 3 mps 665 mmHg 9%
20:00 +34°C° 0 mm 3 mps 665 mmHg 10%
21:00 +31°C° 0 mm 2 mps 666 mmHg 11%
22:00 +30°C° 0 mm 2 mps 666 mmHg 13%
23:00 +29°C° 0 mm 2 mps 666 mmHg 16%

14 July, Tuesday

Time Temperature Precipitation Wind Pressure Humidity
00:00 +28°C° 0 mm 2 mps 666 mmHg 19%
01:00 +27°C° 0 mm 3 mps 666 mmHg 23%
02:00 +27°C° 0 mm 3 mps 666 mmHg 29%
03:00 +26°C° 0 mm 3 mps 667 mmHg 35%
04:00 +26°C° 0 mm 4 mps 667 mmHg 42%
05:00 +27°C° 0 mm 4 mps 668 mmHg 39%
06:00 +29°C° 0 mm 4 mps 669 mmHg 36%
07:00 +32°C° 0 mm 4 mps 669 mmHg 34%
08:00 +34°C° 0 mm 4 mps 670 mmHg 27%
09:00 +37°C° 0 mm 4 mps 670 mmHg 19%
10:00 +40°C° 0 mm 5 mps 671 mmHg 12%
11:00 +41°C° 0 mm 5 mps 670 mmHg 10%
12:00 +42°C° 0 mm 5 mps 670 mmHg 9%
13:00 +45°C° 0 mm 6 mps 670 mmHg 7%
14:00 +45°C° 0 mm 6 mps 669 mmHg 7%
15:00 +45°C° 0 mm 7 mps 669 mmHg 7%
16:00 +45°C° 0 mm 7 mps 669 mmHg 7%
17:00 +41°C° 0 mm 6 mps 668 mmHg 8%
18:00 +37°C° 0 mm 4 mps 668 mmHg 10%
19:00 +35°C° 0 mm 2 mps 668 mmHg 11%
20:00 +32°C° 0 mm 2 mps 668 mmHg 13%
21:00 +31°C° 0 mm 1 mps 668 mmHg 14%
22:00 +29°C° 0 mm 1 mps 668 mmHg 15%
23:00 +28°C° 0 mm 1 mps 668 mmHg 16%

15 July, Wednesday

Time Temperature Precipitation Wind Pressure Humidity
00:00 +27°C° 0 mm 1 mps 667 mmHg 17%
01:00 +27°C° 0 mm 1 mps 667 mmHg 18%
02:00 +26°C° 0 mm 1 mps 667 mmHg 18%
03:00 +26°C° 0 mm 1 mps 668 mmHg 19%
04:00 +26°C° 0 mm 2 mps 668 mmHg 19%
05:00 +28°C° 0 mm 2 mps 669 mmHg 18%
06:00 +30°C° 0 mm 3 mps 670 mmHg 17%
07:00 +33°C° 0 mm 3 mps 671 mmHg 16%
08:00 +35°C° 0 mm 3 mps 671 mmHg 15%
09:00 +37°C° 0 mm 3 mps 671 mmHg 13%
10:00 +40°C° 0 mm 2 mps 671 mmHg 11%
11:00 +41°C° 0 mm 2 mps 671 mmHg 10%
12:00 +42°C° 0 mm 2 mps 670 mmHg 9%
13:00 +43°C° 0 mm 2 mps 670 mmHg 8%
14:00 +43°C° 0 mm 2 mps 669 mmHg 7%
15:00 +45°C° 0 mm 2 mps 669 mmHg 7%
16:00 +45°C° 0 mm 2 mps 668 mmHg 6%
17:00 +41°C° 0 mm 2 mps 667 mmHg 8%
18:00 +37°C° 0 mm 1 mps 667 mmHg 9%
19:00 +33°C° 0 mm 1 mps 666 mmHg 11%
20:00 +32°C° 0 mm 1 mps 666 mmHg 11%
21:00 +31°C° 0 mm 1 mps 666 mmHg 12%
22:00 +30°C° 0 mm 1 mps 667 mmHg 13%
23:00 +29°C° 0 mm 1 mps 666 mmHg 13%
Show more